Precipitable_Water
0.50 0.49 0.48 0.46 0.43 0.40 0.38 0.36 0.35 0.35 0.37 0.27 0.24 0.27 0.16 0.15 0.13 0.19 0.23 0.24 0.19 0.13 0.11 0.14 0.13 0.13 0.15 0.20 0.19 0.22 0.18 0.17 0.18 0.16 0.18 0.15 0.19 0.17 0.17 0.16 0.14 0.15 0.15 0.15 0.15 0.16 0.13 0.14 0.13 0.14 0.15 0.16 0.19 0.22 0.23 0.24 0.21 0.22 0.18 0.20 0.21 0.23 0.16 0.14 0.16 0.19 0.21 0.24 0.27 0.28 0.29 0.28 0.26 0.26 0.26 0.25 0.22 0.23 0.21 0.20 0.20 0.17 0.16 0.14 0.14 0.12 0.14
0.48 0.46 0.43 0.40 0.38 0.36 0.36 0.36 0.36 0.37 0.38 0.32 0.29 0.19 0.16 0.17 0.15 0.16 0.22 0.24 0.20 0.13 0.09 0.09 0.11 0.14 0.17 0.17 0.17 0.21 0.18 0.17 0.16 0.16 0.18 0.16 0.15 0.15 0.15 0.16 0.18 0.15 0.19 0.17 0.14 0.18 0.11 0.15 0.15 0.14 0.17 0.16 0.24 0.23 0.23 0.25 0.20 0.20 0.20 0.18 0.25 0.18 0.19 0.19 0.16 0.16 0.18 0.21 0.23 0.24 0.26 0.26 0.24 0.23 0.23 0.24 0.24 0.23 0.21 0.19 0.18 0.13 0.13 0.14 0.13 0.09 0.13
0.44 0.41 0.38 0.37 0.37 0.37 0.36 0.36 0.35 0.36 0.39 0.39 0.28 0.17 0.18 0.17 0.21 0.18 0.18 0.21 0.18 0.12 0.14 0.12 0.12 0.12 0.12 0.13 0.13 0.15 0.18 0.21 0.20 0.19 0.16 0.19 0.17 0.16 0.15 0.17 0.19 0.18 0.19 0.17 0.18 0.19 0.16 0.13 0.17 0.17 0.17 0.17 0.24 0.24 0.24 0.27 0.24 0.28 0.29 0.29 0.31 0.22 0.21 0.20 0.16 0.14 0.13 0.13 0.14 0.15 0.18 0.21 0.23 0.22 0.22 0.21 0.18 0.16 0.15 0.12 0.14 0.11 0.13 0.14 0.12 0.12 0.15
0.38 0.37 0.37 0.37 0.36 0.34 0.34 0.33 0.33 0.35 0.38 0.38 0.27 0.20 0.17 0.14 0.11 0.15 0.16 0.19 0.19 0.19 0.21 0.17 0.14 0.13 0.13 0.12 0.14 0.16 0.14 0.18 0.22 0.22 0.18 0.19 0.19 0.20 0.19 0.20 0.20 0.18 0.17 0.15 0.15 0.15 0.19 0.16 0.15 0.17 0.16 0.18 0.22 0.25 0.27 0.28 0.28 0.30 0.32 0.31 0.29 0.23 0.24 0.23 0.21 0.18 0.17 0.18 0.20 0.23 0.24 0.22 0.18 0.17 0.16 0.15 0.15 0.15 0.15 0.15 0.13 0.11 0.13 0.12 0.13 0.13 0.14
0.36 0.36 0.35 0.33 0.33 0.33 0.33 0.34 0.35 0.36 0.39 0.39 0.26 0.22 0.18 0.18 0.14 0.15 0.12 0.17 0.16 0.16 0.18 0.16 0.16 0.13 0.15 0.12 0.15 0.13 0.13 0.15 0.17 0.22 0.14 0.20 0.19 0.20 0.20 0.18 0.15 0.16 0.16 0.15 0.15 0.17 0.17 0.19 0.19 0.18 0.18 0.21 0.24 0.27 0.29 0.31 0.31 0.31 0.30 0.31 0.27 0.23 0.21 0.22 0.22 0.22 0.21 0.22 0.21 0.21 0.20 0.17 0.15 0.14 0.13 0.14 0.14 0.15 0.14 0.13 0.11 0.15 0.12 0.09 0.14 0.14 0.12
0.35 0.34 0.32 0.33 0.35 0.35 0.35 0.35 0.36 0.36 0.38 0.38 0.31 0.17 0.18 0.13 0.16 0.17 0.17 0.12 0.11 0.13 0.14 0.16 0.15 0.16 0.15 0.13 0.16 0.13 0.12 0.13 0.12 0.17 0.19 0.21 0.21 0.16 0.18 0.17 0.19 0.19 0.18 0.18 0.15 0.17 0.17 0.19 0.18 0.22 0.23 0.23 0.26 0.26 0.30 0.28 0.29 0.29 0.28 0.30 0.25 0.22 0.19 0.22 0.21 0.19 0.19 0.19 0.17 0.17 0.16 0.15 0.14 0.13 0.13 0.13 0.15 0.15 0.14 0.14 0.15 0.15 0.12 0.10 0.12 0.13 0.12
0.34 0.34 0.35 0.36 0.36 0.35 0.34 0.33 0.34 0.35 0.35 0.34 0.22 0.14 0.17 0.16 0.16 0.16 0.19 0.12 0.14 0.14 0.15 0.17 0.14 0.13 0.14 0.14 0.15 0.13 0.13 0.13 0.16 0.16 0.16 0.18 0.17 0.19 0.14 0.17 0.20 0.22 0.24 0.21 0.18 0.20 0.17 0.18 0.22 0.22 0.23 0.24 0.24 0.23 0.25 0.27 0.28 0.27 0.26 0.26 0.26 0.22 0.19 0.20 0.19 0.16 0.15 0.15 0.15 0.16 0.14 0.14 0.13 0.13 0.14 0.15 0.15 0.15 0.15 0.15 0.15 0.14 0.12 0.13 0.12 0.12 0.11
0.36 0.36 0.35 0.34 0.33 0.32 0.31 0.30 0.30 0.33 0.34 0.30 0.18 0.17 0.13 0.12 0.13 0.12 0.16 0.15 0.15 0.15 0.15 0.15 0.14 0.12 0.15 0.12 0.14 0.15 0.15 0.14 0.17 0.20 0.18 0.16 0.18 0.23 0.19 0.21 0.23 0.24 0.24 0.23 0.20 0.22 0.23 0.22 0.20 0.25 0.25 0.23 0.24 0.22 0.22 0.22 0.25 0.26 0.23 0.24 0.24 0.19 0.15 0.17 0.16 0.13 0.12 0.14 0.15 0.15 0.14 0.13 0.12 0.14 0.15 0.15 0.15 0.14 0.14 0.14 0.14 0.13 0.11 0.12 0.11 0.10 0.09
0.35 0.33 0.32 0.32 0.31 0.31 0.29 0.28 0.28 0.30 0.33 0.20 0.18 0.19 0.22 0.20 0.21 0.19 0.15 0.13 0.15 0.16 0.15 0.15 0.14 0.13 0.15 0.14 0.16 0.17 0.17 0.18 0.21 0.20 0.25 0.21 0.20 0.23 0.21 0.23 0.23 0.25 0.24 0.23 0.23 0.27 0.26 0.26 0.26 0.27 0.26 0.21 0.25 0.22 0.22 0.25 0.21 0.23 0.21 0.21 0.19 0.18 0.13 0.15 0.13 0.09 0.09 0.13 0.13 0.13 0.13 0.13 0.12 0.13 0.14 0.13 0.12 0.11 0.12 0.11 0.12 0.11 0.09 0.10 0.10 0.08 0.09
0.32 0.32 0.31 0.31 0.31 0.32 0.30 0.29 0.28 0.28 0.29 0.21 0.21 0.18 0.25 0.25 0.28 0.26 0.20 0.14 0.17 0.15 0.17 0.16 0.16 0.14 0.17 0.19 0.18 0.18 0.18 0.21 0.23 0.20 0.24 0.26 0.27 0.26 0.25 0.25 0.24 0.23 0.23 0.23 0.25 0.28 0.29 0.29 0.29 0.29 0.29 0.29 0.27 0.26 0.25 0.25 0.22 0.20 0.19 0.19 0.15 0.14 0.12 0.10 0.09 0.07 0.07 0.12 0.13 0.12 0.12 0.11 0.09 0.10 0.11 0.12 0.12 0.13 0.13 0.13 0.13 0.12 0.12 0.09 0.08 0.08 0.12
0.31 0.31 0.30 0.31 0.32 0.32 0.31 0.30 0.29 0.28 0.25 0.20 0.19 0.20 0.23 0.20 0.19 0.23 0.21 0.15 0.16 0.17 0.16 0.16 0.16 0.17 0.21 0.22 0.20 0.22 0.21 0.21 0.22 0.18 0.19 0.25 0.26 0.30 0.28 0.25 0.22 0.22 0.23 0.27 0.32 0.32 0.31 0.31 0.31 0.30 0.28 0.26 0.24 0.24 0.23 0.23 0.23 0.20 0.16 0.14 0.13 0.13 0.12 0.10 0.11 0.07 0.08 0.11 0.10 0.10 0.08 0.05 0.06 0.12 0.14 0.13 0.12 0.12 0.10 0.10 0.11 0.12 0.12 0.11 0.12 0.12 0.14
0.30 0.30 0.29 0.30 0.31 0.32 0.32 0.30 0.29 0.29 0.27 0.26 0.25 0.23 0.27 0.29 0.24 0.21 0.17 0.14 0.15 0.19 0.17 0.16 0.17 0.20 0.20 0.22 0.22 0.21 0.20 0.21 0.21 0.25 0.20 0.23 0.26 0.29 0.27 0.25 0.24 0.20 0.29 0.34 0.32 0.32 0.31 0.31 0.28 0.26 0.24 0.23 0.23 0.22 0.22 0.21 0.19 0.18 0.16 0.12 0.11 0.10 0.10 0.10 0.11 0.08 0.07 0.08 0.07 0.05 0.04 0.05 0.11 0.14 0.15 0.15 0.15 0.14 0.12 0.11 0.12 0.12 0.13 0.13 0.13 0.13 0.13
0.30 0.30 0.29 0.28 0.29 0.31 0.32 0.31 0.30 0.30 0.31 0.29 0.26 0.22 0.28 0.31 0.23 0.19 0.17 0.16 0.15 0.17 0.16 0.17 0.21 0.22 0.23 0.22 0.21 0.22 0.23 0.24 0.25 0.26 0.26 0.24 0.24 0.26 0.27 0.25 0.23 0.26 0.34 0.29 0.30 0.28 0.22 0.19 0.20 0.20 0.20 0.21 0.21 0.21 0.20 0.19 0.16 0.16 0.14 0.13 0.11 0.09 0.09 0.08 0.07 0.08 0.07 0.05 0.05 0.03 0.04 0.09 0.12 0.14 0.15 0.16 0.15 0.14 0.12 0.09 0.12 0.12 0.13 0.13 0.12 0.12 0.13
0.29 0.29 0.28 0.28 0.29 0.30 0.32 0.32 0.31 0.31 0.32 0.31 0.27 0.28 0.30 0.30 0.22 0.20 0.19 0.16 0.16 0.20 0.19 0.20 0.21 0.21 0.21 0.21 0.21 0.22 0.23 0.23 0.24 0.26 0.22 0.26 0.24 0.24 0.26 0.28 0.28 0.33 0.29 0.29 0.25 0.23 0.19 0.19 0.15 0.16 0.15 0.16 0.16 0.15 0.17 0.16 0.14 0.13 0.12 0.12 0.12 0.10 0.09 0.07 0.05 0.08 0.04 0.05 0.05 0.05 0.07 0.08 0.11 0.11 0.13 0.13 0.11 0.12 0.10 0.08 0.09 0.13 0.13 0.13 0.12 0.12 0.12
0.27 0.27 0.28 0.28 0.29 0.30 0.31 0.32 0.32 0.31 0.31 0.31 0.29 0.29 0.29 0.29 0.27 0.22 0.21 0.19 0.16 0.20 0.21 0.16 0.19 0.21 0.21 0.21 0.22 0.20 0.20 0.21 0.21 0.21 0.24 0.27 0.24 0.24 0.24 0.28 0.31 0.28 0.28 0.24 0.20 0.20 0.16 0.15 0.11 0.10 0.11 0.10 0.07 0.08 0.14 0.11 0.15 0.15 0.13 0.12 0.12 0.10 0.07 0.07 0.05 0.06 0.07 0.05 0.05 0.04 0.05 0.04 0.07 0.12 0.15 0.16 0.16 0.15 0.14 0.12 0.09 0.13 0.14 0.14 0.12 0.11 0.11
0.27 0.27 0.28 0.29 0.29 0.30 0.30 0.31 0.33 0.33 0.32 0.32 0.28 0.27 0.29 0.32 0.29 0.25 0.22 0.19 0.18 0.15 0.19 0.24 0.25 0.23 0.21 0.21 0.22 0.20 0.18 0.18 0.18 0.19 0.18 0.18 0.20 0.22 0.26 0.29 0.29 0.28 0.24 0.21 0.18 0.16 0.14 0.11 0.09 0.09 0.08 0.08 0.10 0.10 0.08 0.11 0.10 0.13 0.13 0.11 0.10 0.10 0.09 0.07 0.06 0.06 0.06 0.06 0.05 0.05 0.04 0.05 0.10 0.13 0.15 0.16 0.16 0.15 0.14 0.11 0.07 0.13 0.13 0.13 0.13 0.11 0.11
0.26 0.27 0.28 0.29 0.30 0.30 0.30 0.30 0.31 0.32 0.32 0.33 0.27 0.27 0.26 0.32 0.29 0.25 0.21 0.21 0.20 0.18 0.26 0.27 0.27 0.25 0.22 0.20 0.21 0.19 0.19 0.15 0.15 0.13 0.12 0.13 0.16 0.18 0.21 0.25 0.28 0.24 0.20 0.18 0.15 0.14 0.11 0.10 0.10 0.10 0.10 0.11 0.08 0.08 0.11 0.09 0.08 0.07 0.09 0.08 0.08 0.07 0.07 0.07 0.06 0.06 0.07 0.06 0.06 0.05 0.06 0.07 0.11 0.14 0.15 0.15 0.15 0.14 0.12 0.06 0.06 0.11 0.13 0.13 0.13 0.11 0.10
0.26 0.27 0.28 0.30 0.31 0.31 0.30 0.29 0.30 0.30 0.30 0.31 0.28 0.26 0.26 0.31 0.32 0.29 0.23 0.20 0.19 0.20 0.25 0.28 0.24 0.21 0.19 0.19 0.17 0.19 0.20 0.17 0.16 0.18 0.14 0.15 0.16 0.17 0.17 0.18 0.16 0.22 0.22 0.14 0.13 0.11 0.10 0.09 0.08 0.08 0.07 0.11 0.12 0.12 0.07 0.09 0.07 0.07 0.07 0.07 0.06 0.06 0.06 0.07 0.06 0.06 0.07 0.07 0.06 0.07 0.07 0.13 0.15 0.14 0.14 0.15 0.15 0.12 0.07 0.06 0.08 0.13 0.13 0.13 0.12 0.11 0.10
0.27 0.27 0.29 0.30 0.31 0.32 0.31 0.30 0.29 0.30 0.31 0.31 0.29 0.27 0.27 0.30 0.31 0.29 0.23 0.22 0.20 0.17 0.24 0.29 0.29 0.24 0.24 0.26 0.20 0.20 0.20 0.17 0.16 0.12 0.12 0.12 0.13 0.19 0.19 0.18 0.18 0.13 0.17 0.13 0.12 0.10 0.09 0.09 0.12 0.10 0.08 0.09 0.11 0.08 0.11 0.07 0.07 0.09 0.09 0.06 0.06 0.06 0.07 0.08 0.07 0.07 0.06 0.07 0.06 0.06 0.07 0.11 0.14 0.15 0.14 0.15 0.11 0.07 0.07 0.11 0.15 0.14 0.13 0.13 0.12 0.10 0.10
0.27 0.28 0.29 0.31 0.31 0.31 0.32 0.31 0.30 0.29 0.29 0.30 0.28 0.25 0.28 0.31 0.32 0.30 0.23 0.20 0.22 0.20 0.23 0.24 0.24 0.19 0.22 0.19 0.16 0.15 0.16 0.17 0.17 0.14 0.12 0.10 0.15 0.18 0.16 0.10 0.15 0.17 0.14 0.15 0.09 0.11 0.09 0.08 0.09 0.11 0.09 0.09 0.10 0.12 0.09 0.09 0.11 0.08 0.08 0.09 0.07 0.07 0.07 0.06 0.07 0.08 0.08 0.08 0.07 0.06 0.05 0.10 0.15 0.14 0.13 0.14 0.09 0.10 0.13 0.14 0.14 0.14 0.13 0.12 0.11 0.10 0.10
0.28 0.29 0.30 0.31 0.31 0.30 0.31 0.31 0.31 0.30 0.30 0.30 0.29 0.25 0.25 0.30 0.30 0.29 0.28 0.23 0.20 0.17 0.19 0.27 0.25 0.23 0.23 0.21 0.22 0.22 0.19 0.14 0.16 0.14 0.15 0.14 0.17 0.15 0.07 0.07 0.11 0.13 0.10 0.11 0.08 0.09 0.10 0.09 0.10 0.10 0.11 0.10 0.10 0.10 0.07 0.08 0.09 0.12 0.11 0.09 0.08 0.10 0.07 0.07 0.07 0.09 0.07 0.07 0.06 0.06 0.09 0.13 0.15 0.13 0.10 0.12 0.13 0.15 0.15 0.14 0.13 0.13 0.12 0.11 0.10 0.10 0.10
0.28 0.30 0.30 0.31 0.31 0.30 0.29 0.30 0.31 0.30 0.30 0.30 0.29 0.27 0.24 0.28 0.30 0.30 0.29 0.26 0.20 0.18 0.20 0.25 0.27 0.26 0.27 0.28 0.27 0.26 0.24 0.22 0.23 0.23 0.17 0.14 0.17 0.15 0.15 0.16 0.15 0.14 0.15 0.15 0.12 0.11 0.13 0.12 0.13 0.10 0.08 0.09 0.12 0.08 0.09 0.07 0.06 0.09 0.12 0.10 0.06 0.10 0.08 0.10 0.08 0.10 0.09 0.08 0.09 0.11 0.14 0.14 0.15 0.14 0.14 0.14 0.15 0.16 0.15 0.15 0.13 0.12 0.11 0.11 0.10 0.09 0.10
0.29 0.30 0.31 0.31 0.31 0.30 0.30 0.30 0.30 0.30 0.30 0.30 0.29 0.26 0.24 0.27 0.28 0.30 0.29 0.22 0.25 0.26 0.28 0.26 0.27 0.28 0.29 0.30 0.31 0.31 0.29 0.30 0.28 0.25 0.23 0.18 0.14 0.16 0.15 0.14 0.13 0.19 0.18 0.18 0.13 0.12 0.12 0.12 0.09 0.12 0.10 0.10 0.09 0.08 0.09 0.09 0.07 0.09 0.08 0.11 0.09 0.12 0.12 0.13 0.12 0.10 0.13 0.13 0.13 0.14 0.14 0.14 0.14 0.15 0.15 0.15 0.15 0.16 0.15 0.14 0.12 0.11 0.11 0.10 0.10 0.10 0.10
0.29 0.30 0.31 0.31 0.31 0.31 0.31 0.30 0.29 0.29 0.29 0.30 0.29 0.26 0.25 0.26 0.27 0.26 0.24 0.22 0.18 0.16 0.20 0.23 0.19 0.16 0.19 0.20 0.26 0.30 0.30 0.27 0.27 0.27 0.28 0.24 0.13 0.13 0.17 0.19 0.21 0.18 0.17 0.19 0.20 0.14 0.13 0.13 0.11 0.12 0.08 0.10 0.11 0.08 0.07 0.06 0.08 0.09 0.09 0.08 0.10 0.11 0.12 0.11 0.10 0.12 0.10 0.08 0.13 0.12 0.13 0.14 0.14 0.15 0.15 0.16 0.16 0.15 0.15 0.13 0.12 0.11 0.11 0.10 0.10 0.10 0.09
0.30 0.30 0.30 0.30 0.30 0.31 0.31 0.31 0.30 0.30 0.31 0.30 0.30 0.31 0.31 0.29 0.32 0.28 0.22 0.15 0.15 0.13 0.11 0.15 0.17 0.22 0.26 0.28 0.29 0.27 0.28 0.30 0.31 0.28 0.27 0.26 0.22 0.15 0.13 0.18 0.22 0.16 0.15 0.18 0.21 0.17 0.15 0.10 0.11 0.10 0.08 0.12 0.11 0.07 0.11 0.08 0.08 0.11 0.08 0.09 0.09 0.09 0.14 0.11 0.11 0.11 0.10 0.10 0.11 0.13 0.14 0.14 0.15 0.15 0.14 0.14 0.15 0.15 0.14 0.13 0.12 0.11 0.11 0.11 0.10 0.09 0.08
0.30 0.30 0.30 0.30 0.30 0.31 0.31 0.31 0.31 0.31 0.30 0.30 0.29 0.26 0.24 0.23 0.27 0.27 0.22 0.19 0.18 0.16 0.12 0.12 0.16 0.25 0.27 0.24 0.21 0.24 0.29 0.29 0.27 0.26 0.26 0.25 0.25 0.24 0.21 0.22 0.19 0.23 0.20 0.19 0.17 0.13 0.12 0.11 0.11 0.10 0.09 0.09 0.14 0.09 0.09 0.10 0.10 0.12 0.09 0.09 0.10 0.11 0.13 0.09 0.11 0.10 0.11 0.12 0.13 0.13 0.13 0.14 0.14 0.15 0.15 0.15 0.15 0.14 0.13 0.12 0.11 0.10 0.10 0.10 0.09 0.08 0.07
0.29 0.29 0.30 0.30 0.31 0.30 0.30 0.30 0.30 0.29 0.29 0.29 0.28 0.28 0.27 0.28 0.31 0.25 0.21 0.19 0.17 0.12 0.14 0.12 0.16 0.20 0.23 0.20 0.24 0.27 0.26 0.26 0.25 0.24 0.24 0.24 0.23 0.23 0.22 0.21 0.18 0.18 0.17 0.15 0.15 0.14 0.12 0.11 0.10 0.09 0.11 0.10 0.13 0.11 0.12 0.11 0.10 0.09 0.09 0.10 0.13 0.11 0.09 0.12 0.12 0.10 0.09 0.10 0.11 0.13 0.10 0.10 0.12 0.14 0.15 0.15 0.15 0.14 0.12 0.11 0.10 0.10 0.10 0.09 0.08 0.07 0.07
0.29 0.30 0.30 0.30 0.30 0.30 0.30 0.30 0.30 0.29 0.29 0.29 0.28 0.27 0.27 0.25 0.26 0.26 0.28 0.25 0.16 0.11 0.12 0.13 0.14 0.17 0.23 0.19 0.23 0.25 0.25 0.25 0.24 0.22 0.21 0.22 0.23 0.21 0.20 0.19 0.18 0.16 0.15 0.14 0.11 0.11 0.11 0.09 0.09 0.13 0.13 0.13 0.11 0.10 0.13 0.13 0.13 0.10 0.10 0.10 0.12 0.10 0.11 0.12 0.10 0.10 0.10 0.12 0.14 0.15 0.14 0.14 0.14 0.15 0.15 0.15 0.14 0.13 0.11 0.10 0.10 0.10 0.10 0.09 0.07 0.07 0.07
0.29 0.29 0.30 0.30 0.30 0.30 0.31 0.31 0.31 0.30 0.31 0.30 0.28 0.25 0.25 0.27 0.27 0.26 0.24 0.24 0.20 0.16 0.16 0.16 0.18 0.16 0.11 0.14 0.24 0.22 0.24 0.24 0.22 0.21 0.20 0.20 0.20 0.20 0.18 0.18 0.16 0.16 0.15 0.15 0.14 0.14 0.12 0.11 0.13 0.12 0.11 0.15 0.13 0.10 0.12 0.09 0.08 0.08 0.09 0.11 0.12 0.13 0.14 0.13 0.13 0.14 0.14 0.15 0.15 0.15 0.15 0.13 0.14 0.15 0.15 0.14 0.14 0.12 0.10 0.10 0.10 0.10 0.09 0.08 0.07 0.07 0.07
0.29 0.29 0.29 0.30 0.30 0.30 0.29 0.29 0.29 0.29 0.30 0.29 0.28 0.23 0.18 0.19 0.25 0.26 0.27 0.24 0.21 0.18 0.14 0.12 0.10 0.12 0.20 0.19 0.18 0.20 0.21 0.23 0.21 0.20 0.19 0.18 0.18 0.18 0.18 0.18 0.17 0.17 0.15 0.13 0.13 0.11 0.13 0.13 0.14 0.16 0.18 0.21 0.13 0.12 0.10 0.09 0.09 0.09 0.12 0.13 0.13 0.14 0.15 0.15 0.16 0.14 0.13 0.16 0.16 0.16 0.15 0.15 0.16 0.15 0.15 0.14 0.13 0.12 0.10 0.10 0.10 0.09 0.09 0.08 0.07 0.07 0.07
0.28 0.29 0.29 0.29 0.28 0.28 0.27 0.25 0.26 0.28 0.28 0.26 0.25 0.18 0.16 0.13 0.17 0.28 0.27 0.24 0.25 0.18 0.15 0.15 0.12 0.17 0.15 0.18 0.20 0.18 0.19 0.20 0.19 0.19 0.19 0.19 0.19 0.18 0.19 0.19 0.18 0.18 0.13 0.14 0.13 0.13 0.14 0.12 0.13 0.14 0.18 0.18 0.15 0.12 0.10 0.09 0.08 0.09 0.11 0.13 0.14 0.14 0.15 0.15 0.16 0.16 0.17 0.17 0.17 0.17 0.16 0.16 0.16 0.15 0.14 0.13 0.12 0.11 0.10 0.10 0.10 0.09 0.08 0.08 0.07 0.07 0.07
0.27 0.27 0.27 0.27 0.27 0.26 0.25 0.24 0.23 0.23 0.23 0.22 0.20 0.19 0.18 0.18 0.21 0.26 0.29 0.27 0.24 0.18 0.14 0.12 0.12 0.12 0.12 0.14 0.16 0.20 0.20 0.20 0.19 0.19 0.18 0.20 0.17 0.20 0.18 0.18 0.16 0.19 0.16 0.14 0.14 0.14 0.13 0.14 0.13 0.14 0.14 0.16 0.16 0.12 0.12 0.10 0.09 0.09 0.12 0.13 0.14 0.15 0.16 0.16 0.16 0.17 0.17 0.18 0.17 0.15 0.14 0.15 0.15 0.14 0.13 0.13 0.12 0.11 0.10 0.10 0.10 0.09 0.08 0.08 0.07 0.07 0.07
0.27 0.28 0.27 0.27 0.26 0.26 0.25 0.24 0.23 0.22 0.21 0.25 0.28 0.30 0.30 0.29 0.28 0.28 0.26 0.23 0.19 0.17 0.17 0.13 0.10 0.12 0.11 0.12 0.18 0.16 0.19 0.19 0.16 0.17 0.15 0.19 0.16 0.19 0.16 0.19 0.18 0.16 0.20 0.16 0.12 0.11 0.15 0.15 0.15 0.14 0.15 0.17 0.13 0.12 0.11 0.09 0.09 0.11 0.13 0.14 0.15 0.15 0.16 0.17 0.17 0.17 0.17 0.17 0.17 0.14 0.13 0.14 0.14 0.15 0.14 0.12 0.11 0.11 0.10 0.10 0.09 0.09 0.08 0.07 0.07 0.07 0.07
0.27 0.28 0.28 0.29 0.29 0.28 0.27 0.26 0.25 0.24 0.25 0.22 0.20 0.21 0.24 0.27 0.28 0.26 0.24 0.19 0.16 0.17 0.16 0.12 0.10 0.10 0.10 0.16 0.11 0.14 0.18 0.12 0.12 0.15 0.12 0.18 0.19 0.17 0.15 0.17 0.17 0.14 0.15 0.13 0.15 0.15 0.16 0.16 0.13 0.14 0.17 0.14 0.15 0.12 0.09 0.09 0.11 0.12 0.13 0.14 0.15 0.16 0.16 0.16 0.16 0.16 0.17 0.17 0.17 0.16 0.16 0.16 0.15 0.15 0.13 0.11 0.11 0.11 0.11 0.10 0.09 0.08 0.07 0.07 0.07 0.07 0.07
0.26 0.27 0.27 0.28 0.28 0.29 0.27 0.26 0.23 0.21 0.19 0.21 0.22 0.24 0.27 0.26 0.24 0.23 0.23 0.20 0.13 0.12 0.12 0.13 0.13 0.09 0.09 0.09 0.09 0.12 0.18 0.14 0.10 0.13 0.12 0.14 0.20 0.15 0.16 0.13 0.14 0.12 0.13 0.19 0.15 0.13 0.13 0.12 0.15 0.13 0.11 0.14 0.13 0.09 0.09 0.10 0.11 0.12 0.13 0.14 0.15 0.16 0.16 0.15 0.16 0.17 0.17 0.17 0.16 0.16 0.16 0.16 0.14 0.13 0.11 0.11 0.11 0.10 0.10 0.09 0.08 0.07 0.07 0.07 0.07 0.07 0.07
0.26 0.26 0.27 0.28 0.28 0.27 0.26 0.24 0.24 0.22 0.20 0.20 0.22 0.28 0.30 0.30 0.27 0.23 0.22 0.21 0.17 0.12 0.12 0.12 0.12 0.09 0.10 0.07 0.07 0.12 0.18 0.13 0.13 0.13 0.15 0.15 0.14 0.19 0.16 0.14 0.11 0.14 0.18 0.15 0.12 0.14 0.12 0.16 0.14 0.10 0.12 0.11 0.09 0.09 0.09 0.11 0.11 0.12 0.13 0.14 0.15 0.15 0.15 0.16 0.16 0.16 0.16 0.16 0.16 0.16 0.15 0.15 0.13 0.12 0.11 0.11 0.10 0.10 0.09 0.09 0.08 0.08 0.07 0.07 0.07 0.07 0.07
0.25 0.26 0.27 0.27 0.25 0.22 0.19 0.20 0.24 0.23 0.21 0.25 0.28 0.31 0.33 0.33 0.30 0.25 0.21 0.20 0.20 0.20 0.14 0.12 0.11 0.10 0.11 0.10 0.13 0.14 0.16 0.09 0.12 0.11 0.13 0.12 0.11 0.16 0.14 0.13 0.10 0.15 0.14 0.13 0.13 0.12 0.14 0.19 0.14 0.11 0.11 0.09 0.09 0.11 0.12 0.12 0.12 0.13 0.13 0.15 0.16 0.16 0.17 0.17 0.17 0.17 0.15 0.15 0.15 0.15 0.15 0.14 0.13 0.12 0.11 0.10 0.10 0.10 0.09 0.08 0.07 0.07 0.07 0.07 0.07 0.07 0.07
0.26 0.26 0.24 0.21 0.20 0.16 0.16 0.18 0.21 0.25 0.30 0.29 0.30 0.25 0.23 0.23 0.19 0.19 0.18 0.17 0.18 0.19 0.16 0.15 0.12 0.13 0.15 0.13 0.09 0.16 0.15 0.11 0.14 0.09 0.10 0.14 0.12 0.11 0.15 0.13 0.13 0.14 0.09 0.10 0.12 0.16 0.15 0.14 0.12 0.10 0.10 0.12 0.13 0.13 0.13 0.13 0.14 0.15 0.15 0.15 0.16 0.17 0.17 0.17 0.17 0.16 0.14 0.14 0.14 0.14 0.14 0.13 0.12 0.11 0.11 0.10 0.10 0.09 0.09 0.08 0.08 0.08 0.08 0.07 0.07 0.07 0.07
0.25 0.23 0.22 0.20 0.17 0.15 0.16 0.18 0.28 0.29 0.26 0.27 0.25 0.22 0.20 0.22 0.19 0.17 0.16 0.16 0.16 0.14 0.16 0.14 0.12 0.15 0.13 0.12 0.13 0.19 0.15 0.12 0.11 0.11 0.08 0.13 0.11 0.09 0.13 0.09 0.11 0.13 0.10 0.10 0.12 0.16 0.10 0.10 0.11 0.11 0.10 0.11 0.11 0.11 0.13 0.14 0.14 0.15 0.15 0.16 0.16 0.17 0.17 0.17 0.17 0.15 0.15 0.14 0.15 0.15 0.14 0.12 0.11 0.10 0.11 0.10 0.10 0.10 0.09 0.08 0.08 0.08 0.08 0.07 0.07 0.07 0.07
0.22 0.19 0.18 0.17 0.16 0.17 0.23 0.26 0.27 0.24 0.24 0.18 0.18 0.18 0.16 0.20 0.18 0.16 0.19 0.15 0.13 0.15 0.15 0.13 0.15 0.15 0.15 0.13 0.13 0.13 0.21 0.15 0.10 0.10 0.11 0.11 0.18 0.10 0.12 0.11 0.13 0.11 0.08 0.08 0.10 0.15 0.10 0.09 0.10 0.10 0.09 0.10 0.10 0.12 0.13 0.14 0.14 0.15 0.15 0.16 0.17 0.17 0.17 0.17 0.16 0.16 0.16 0.16 0.16 0.15 0.14 0.13 0.12 0.11 0.11 0.10 0.10 0.09 0.08 0.08 0.08 0.08 0.07 0.07 0.07 0.07 0.07
0.21 0.20 0.18 0.16 0.18 0.20 0.22 0.25 0.26 0.21 0.17 0.16 0.15 0.16 0.16 0.15 0.18 0.20 0.18 0.16 0.14 0.14 0.18 0.16 0.16 0.15 0.16 0.17 0.16 0.13 0.18 0.20 0.17 0.17 0.15 0.11 0.16 0.16 0.11 0.09 0.14 0.09 0.08 0.08 0.12 0.13 0.12 0.10 0.10 0.10 0.09 0.11 0.11 0.12 0.13 0.14 0.14 0.15 0.16 0.16 0.17 0.17 0.17 0.17 0.16 0.16 0.16 0.16 0.16 0.15 0.14 0.13 0.12 0.12 0.11 0.11 0.10 0.09 0.08 0.08 0.07 0.07 0.07 0.07 0.07 0.07 0.07
0.21 0.20 0.21 0.24 0.24 0.23 0.22 0.19 0.15 0.15 0.14 0.15 0.13 0.13 0.14 0.16 0.18 0.18 0.18 0.15 0.15 0.17 0.17 0.17 0.14 0.14 0.14 0.16 0.16 0.17 0.17 0.20 0.18 0.17 0.13 0.09 0.16 0.12 0.10 0.11 0.12 0.08 0.07 0.10 0.13 0.12 0.11 0.09 0.09 0.09 0.10 0.11 0.12 0.13 0.14 0.13 0.14 0.15 0.15 0.16 0.17 0.17 0.17 0.16 0.16 0.16 0.17 0.16 0.16 0.15 0.14 0.13 0.12 0.12 0.11 0.11 0.10 0.09 0.08 0.08 0.07 0.07 0.07 0.07 0.07 0.07 0.07
0.27 0.26 0.25 0.21 0.20 0.17 0.18 0.14 0.14 0.14 0.11 0.11 0.12 0.11 0.13 0.13 0.14 0.15 0.16 0.19 0.22 0.20 0.18 0.21 0.19 0.21 0.21 0.22 0.17 0.20 0.17 0.21 0.16 0.15 0.12 0.10 0.15 0.13 0.10 0.10 0.09 0.08 0.09 0.13 0.11 0.10 0.09 0.09 0.09 0.09 0.11 0.12 0.13 0.13 0.14 0.14 0.15 0.15 0.16 0.17 0.17 0.17 0.16 0.16 0.16 0.16 0.17 0.17 0.16 0.15 0.13 0.12 0.12 0.12 0.12 0.11 0.10 0.09 0.09 0.08 0.08 0.07 0.07 0.07 0.07 0.07 0.07
0.24 0.22 0.19 0.18 0.16 0.14 0.15 0.09 0.14 0.12 0.11 0.12 0.11 0.10 0.11 0.12 0.13 0.15 0.14 0.16 0.19 0.19 0.20 0.17 0.17 0.16 0.14 0.19 0.16 0.16 0.18 0.18 0.22 0.16 0.14 0.14 0.11 0.09 0.09 0.08 0.08 0.10 0.14 0.11 0.10 0.09 0.09 0.10 0.10 0.10 0.11 0.12 0.13 0.14 0.14 0.15 0.15 0.15 0.16 0.16 0.16 0.16 0.16 0.17 0.17 0.16 0.17 0.17 0.16 0.15 0.14 0.12 0.12 0.12 0.11 0.11 0.10 0.09 0.08 0.08 0.08 0.08 0.08 0.07 0.07 0.07 0.07
0.18 0.17 0.16 0.15 0.12 0.13 0.12 0.09 0.13 0.11 0.09 0.10 0.12 0.11 0.12 0.11 0.13 0.14 0.14 0.18 0.19 0.18 0.21 0.21 0.20 0.18 0.17 0.19 0.19 0.20 0.19 0.14 0.19 0.13 0.10 0.12 0.10 0.11 0.09 0.09 0.11 0.11 0.10 0.09 0.09 0.09 0.09 0.09 0.11 0.11 0.11 0.12 0.13 0.14 0.15 0.15 0.15 0.15 0.15 0.16 0.16 0.16 0.16 0.16 0.16 0.17 0.17 0.16 0.16 0.15 0.13 0.12 0.12 0.12 0.11 0.11 0.10 0.09 0.09 0.08 0.08 0.08 0.07 0.07 0.07 0.07 0.07
0.16 0.14 0.13 0.11 0.09 0.12 0.11 0.09 0.11 0.10 0.12 0.13 0.12 0.13 0.13 0.14 0.14 0.15 0.18 0.20 0.19 0.20 0.19 0.20 0.20 0.20 0.19 0.20 0.17 0.16 0.18 0.17 0.13 0.13 0.13 0.12 0.10 0.09 0.11 0.13 0.13 0.10 0.09 0.09 0.08 0.08 0.08 0.09 0.10 0.11 0.12 0.13 0.13 0.14 0.15 0.15 0.16 0.16 0.16 0.15 0.15 0.16 0.16 0.17 0.17 0.17 0.17 0.17 0.16 0.15 0.13 0.13 0.12 0.12 0.11 0.11 0.10 0.09 0.09 0.08 0.08 0.08 0.07 0.07 0.07 0.07 0.06
0.16 0.17 0.15 0.13 0.11 0.12 0.14 0.10 0.10 0.11 0.12 0.13 0.14 0.15 0.15 0.15 0.17 0.18 0.19 0.21 0.20 0.20 0.21 0.21 0.21 0.21 0.19 0.19 0.20 0.18 0.19 0.18 0.14 0.14 0.14 0.11 0.10 0.11 0.13 0.11 0.09 0.09 0.08 0.08 0.08 0.08 0.09 0.11 0.11 0.12 0.13 0.14 0.14 0.15 0.15 0.15 0.16 0.16 0.16 0.16 0.16 0.16 0.17 0.17 0.17 0.17 0.17 0.17 0.16 0.15 0.13 0.13 0.12 0.12 0.11 0.11 0.10 0.10 0.09 0.09 0.08 0.08 0.07 0.07 0.07 0.07 0.06
0.13 0.16 0.15 0.11 0.10 0.11 0.11 0.11 0.14 0.14 0.16 0.15 0.16 0.17 0.17 0.19 0.17 0.17 0.19 0.21 0.21 0.21 0.20 0.19 0.18 0.20 0.19 0.22 0.22 0.19 0.19 0.18 0.14 0.14 0.14 0.12 0.13 0.11 0.10 0.10 0.09 0.10 0.10 0.09 0.09 0.10 0.11 0.12 0.13 0.13 0.14 0.15 0.15 0.15 0.15 0.15 0.16 0.16 0.16 0.16 0.16 0.16 0.17 0.17 0.17 0.17 0.17 0.16 0.16 0.15 0.14 0.13 0.12 0.12 0.11 0.11 0.10 0.09 0.09 0.09 0.08 0.08 0.08 0.07 0.07 0.07 0.06
0.16 0.15 0.12 0.12 0.13 0.13 0.13 0.15 0.14 0.12 0.14 0.16 0.17 0.17 0.17 0.17 0.16 0.18 0.20 0.21 0.21 0.20 0.21 0.20 0.19 0.19 0.17 0.20 0.19 0.18 0.17 0.17 0.14 0.12 0.14 0.13 0.11 0.10 0.10 0.09 0.09 0.10 0.11 0.11 0.11 0.11 0.12 0.13 0.15 0.15 0.15 0.15 0.15 0.15 0.15 0.16 0.16 0.16 0.16 0.16 0.16 0.17 0.17 0.17 0.17 0.17 0.17 0.17 0.16 0.15 0.14 0.13 0.13 0.12 0.11 0.11 0.10 0.09 0.09 0.09 0.08 0.08 0.08 0.07 0.07 0.07 0.06
0.15 0.14 0.17 0.14 0.14 0.14 0.15 0.16 0.14 0.12 0.13 0.15 0.15 0.15 0.17 0.17 0.17 0.19 0.21 0.20 0.21 0.21 0.22 0.22 0.22 0.18 0.18 0.18 0.16 0.17 0.16 0.17 0.16 0.16 0.14 0.13 0.13 0.12 0.11 0.10 0.11 0.12 0.12 0.13 0.13 0.13 0.15 0.16 0.16 0.15 0.15 0.15 0.15 0.15 0.15 0.16 0.16 0.16 0.16 0.16 0.17 0.17 0.17 0.17 0.17 0.18 0.17 0.17 0.16 0.15 0.15 0.14 0.13 0.12 0.11 0.11 0.10 0.10 0.09 0.09 0.09 0.08 0.08 0.07 0.07 0.07 0.06
0.18 0.15 0.14 0.16 0.13 0.12 0.14 0.11 0.11 0.11 0.12 0.13 0.14 0.15 0.16 0.16 0.17 0.18 0.22 0.21 0.21 0.20 0.19 0.17 0.18 0.17 0.16 0.16 0.16 0.14 0.15 0.19 0.17 0.16 0.15 0.14 0.15 0.14 0.12 0.12 0.14 0.14 0.14 0.14 0.15 0.16 0.16 0.17 0.17 0.16 0.15 0.15 0.15 0.16 0.16 0.16 0.16 0.16 0.17 0.17 0.17 0.17 0.18 0.18 0.18 0.18 0.17 0.17 0.16 0.16 0.15 0.14 0.13 0.13 0.12 0.11 0.11 0.10 0.09 0.09 0.09 0.08 0.08 0.07 0.07 0.07 0.07
0.14 0.13 0.13 0.15 0.17 0.16 0.16 0.15 0.15 0.14 0.14 0.15 0.15 0.16 0.17 0.16 0.19 0.20 0.23 0.21 0.19 0.17 0.16 0.18 0.18 0.17 0.16 0.15 0.16 0.17 0.18 0.18 0.17 0.17 0.15 0.16 0.17 0.15 0.15 0.16 0.15 0.16 0.16 0.15 0.16 0.17 0.18 0.19 0.18 0.17 0.16 0.16 0.16 0.16 0.16 0.16 0.17 0.17 0.17 0.17 0.17 0.17 0.18 0.18 0.18 0.18 0.17 0.17 0.16 0.16 0.15 0.15 0.14 0.13 0.12 0.11 0.11 0.10 0.09 0.08 0.08 0.08 0.08 0.08 0.07 0.07 0.07
Wind_Speed
12 13 14 15 15 16 16 17 17 18 18 16 15 14 12 11 12 13 16 15 12 10 11 12 12 11 11 11 11 12 13 13 14 15 15 16 16 16 15 15 15 14 14 14 15 15 15 15 16 17 17 18 18 19 19 19 19 18 18 18 18 18 18 19 20 20 19 19 18 17 16 16 17 18 19 19 19 19 18 19 20 20 21 20 19 20 21
13 13 14 15 15 15 16 16 17 17 17 16 15 13 11 11 12 13 15 14 11 10 11 11 12 12 12 12 12 13 13 13 15 15 16 16 15 15 15 14 14 14 14 14 15 16 16 17 17 17 18 18 19 19 19 19 19 19 18 19 19 19 18 18 19 19 19 18 18 18 18 18 19 20 20 19 19 19 19 19 19 19 19 18 18 20 21
13 13 14 14 15 15 16 16 17 17 17 16 14 12 11 11 11 12 15 14 11 10 10 10 10 12 12 12 13 14 14 14 15 15 15 15 14 14 14 14 14 14 15 15 16 17 17 18 18 18 18 19 19 19 20 20 19 19 19 19 19 18 18 18 17 17 18 18 18 19 20 20 20 19 20 20 19 19 19 19 19 19 19 19 19 21 22
12 13 14 14 15 15 16 16 16 16 16 15 14 13 12 11 12 13 14 14 12 12 12 11 11 12 12 13 14 14 14 15 15 14 14 14 14 14 14 14 14 15 16 16 17 18 18 18 18 19 20 20 20 20 20 20 20 19 19 18 18 17 18 18 16 16 17 19 20 21 20 19 19 20 21 20 20 20 19 18 18 19 20 22 21 21 23
12 13 14 14 15 15 16 16 16 16 16 15 14 13 13 12 12 13 13 14 13 13 14 13 13 13 12 13 14 14 14 14 14 13 13 14 14 14 14 15 15 16 17 17 18 19 19 18 18 19 20 20 20 21 20 19 20 19 18 18 17 17 18 18 16 17 19 19 19 20 18 18 18 19 21 21 21 21 18 18 19 19 20 22 22 22 25
13 13 14 14 15 15 16 16 16 16 16 15 14 14 14 13 12 13 13 13 13 13 14 14 13 13 12 12 12 13 14 14 14 14 14 14 15 15 14 16 17 17 17 17 18 19 19 19 19 19 20 20 21 21 19 18 20 19 18 18 18 16 18 18 17 18 19 19 19 18 17 18 19 19 20 21 21 20 19 19 20 19 20 22 23 24 27
13 13 14 14 15 16 17 17 17 17 16 15 14 14 13 12 12 12 12 11 11 12 13 12 12 13 12 12 12 13 13 14 14 14 14 15 15 15 15 17 18 18 17 17 17 19 19 19 19 19 20 20 20 20 18 18 19 19 18 19 18 17 18 18 17 18 19 18 18 18 17 18 19 20 20 21 21 20 20 20 20 21 22 24 25 27 28
13 14 14 15 16 17 18 18 18 17 15 15 14 13 13 12 11 11 11 11 11 12 12 12 11 12 12 12 12 13 13 14 14 14 14 14 15 16 15 17 18 18 17 17 17 18 19 19 20 19 19 20 19 18 17 17 19 20 19 19 19 18 19 18 17 18 19 18 18 19 19 18 19 20 20 21 21 21 20 21 21 23 24 25 26 29 29
13 14 15 16 17 17 18 18 18 17 15 14 14 13 12 12 11 10 10 11 13 13 12 12 11 12 13 12 13 13 13 13 13 13 14 14 14 15 16 17 18 18 18 18 18 19 19 18 19 18 18 18 18 17 17 17 19 20 19 19 19 19 18 18 18 18 19 19 19 20 21 20 19 20 21 21 21 21 21 22 23 24 26 28 29 30 29
14 15 16 17 17 18 18 18 18 17 16 14 14 13 13 12 11 11 11 11 13 13 12 12 12 11 12 13 13 13 13 14 13 13 14 14 14 15 17 17 17 18 19 19 19 20 19 18 19 18 17 17 17 17 17 17 19 19 19 19 18 18 17 18 18 19 20 20 20 20 21 21 20 20 21 21 21 21 22 24 24 25 26 28 29 30 30
15 16 16 17 17 18 18 18 19 18 16 15 14 13 13 12 12 12 11 11 13 13 12 12 12 12 12 13 13 13 14 14 14 13 14 15 16 17 18 18 17 18 19 19 19 19 18 18 18 17 16 16 16 16 17 18 19 19 18 18 18 18 17 18 19 19 20 21 21 21 20 19 19 19 20 21 21 21 24 26 27 27 27 28 29 30 31
15 16 17 17 18 18 18 19 19 19 17 16 15 14 14 13 12 12 12 11 12 14 13 12 12 12 13 14 13 13 14 15 15 14 15 16 17 18 19 19 18 18 19 19 18 18 17 17 17 17 16 16 16 17 18 19 20 20 18 17 17 18 19 18 19 19 20 20 21 20 18 18 18 19 21 22 21 22 26 28 27 28 29 29 30 31 32
16 16 17 18 18 18 19 19 20 20 19 18 17 16 15 14 14 13 12 12 12 13 13 12 12 13 14 15 14 14 14 15 15 16 16 17 18 19 20 20 19 19 18 17 17 17 17 17 17 17 17 17 18 18 19 19 19 20 20 19 18 19 19 19 19 19 19 20 20 19 19 20 20 20 22 23 23 25 28 28 28 29 30 30 30 32 34
16 17 17 18 19 19 20 20 21 21 20 19 18 17 17 16 15 13 13 13 12 13 12 12 14 15 15 16 16 15 16 17 17 16 17 18 18 19 20 19 18 18 17 16 17 17 17 17 17 17 17 18 18 17 17 18 18 19 20 21 20 19 19 20 20 19 19 20 20 20 21 21 21 21 23 24 25 27 29 30 30 30 29 29 32 34 36
17 17 18 19 19 20 20 21 21 21 21 21 19 18 18 17 16 15 14 13 12 13 14 13 13 15 15 16 17 17 17 18 18 17 18 18 18 19 19 19 18 18 17 16 16 17 16 16 16 17 17 17 17 16 17 18 18 18 20 21 22 21 20 20 20 20 20 21 21 22 21 21 21 22 24 26 27 28 29 30 31 29 29 32 34 35 37
17 18 18 19 20 20 21 21 21 21 21 21 20 19 19 18 17 16 15 13 13 13 14 14 14 15 15 16 17 17 18 18 18 18 19 19 18 18 19 18 18 18 17 17 16 16 17 16 15 15 16 16 16 16 17 19 19 20 21 22 23 23 22 21 21 22 22 21 21 21 20 21 22 23 26 29 29 29 30 30 30 29 31 34 36 37 38
17 18 18 19 20 21 21 22 22 21 21 21 20 20 20 19 18 17 16 16 15 14 15 15 15 15 16 16 17 18 18 18 18 18 18 18 18 19 19 18 18 17 17 17 17 17 17 16 16 16 16 16 16 17 18 19 20 22 23 23 24 24 23 23 23 23 23 22 22 21 21 22 22 24 28 31 30 29 29 29 29 31 34 36 37 38 39
17 18 19 19 20 21 21 22 22 22 22 21 21 21 21 20 19 17 16 16 16 15 15 16 16 16 16 17 17 18 18 19 19 18 18 18 18 18 18 18 18 18 17 17 17 17 17 16 16 16 16 17 17 18 19 20 21 22 24 24 24 25 25 24 24 24 24 23 23 24 23 22 24 27 30 32 31 29 28 29 32 35 37 37 37 39 39
18 18 19 19 20 20 21 22 22 23 22 22 21 21 21 21 20 18 17 17 17 16 16 16 16 17 17 17 17 18 19 19 19 19 18 19 19 18 18 18 18 18 17 17 16 16 16 16 16 16 17 18 19 18 19 20 21 22 24 25 25 26 26 26 26 26 25 24 24 25 24 23 26 30 31 31 30 29 30 32 34 36 38 38 38 39 40
18 18 18 19 20 20 21 21 22 23 23 22 21 21 21 21 20 19 17 17 17 17 17 17 17 18 18 18 19 19 19 19 19 19 18 18 19 19 18 18 18 18 18 17 17 17 17 17 17 17 18 19 19 19 20 21 21 22 23 24 24 25 26 27 27 27 26 26 26 25 25 26 29 31 31 30 30 31 33 34 36 37 37 38 38 39 40
17 18 18 19 20 20 21 21 22 23 23 23 22 21 22 22 22 20 19 17 17 17 17 17 18 18 19 20 20 20 20 20 20 19 19 19 20 19 18 17 18 18 17 17 17 17 17 17 17 18 18 19 20 20 20 21 22 23 23 23 24 25 25 26 27 27 26 26 26 25 26 29 30 31 31 30 31 32 34 35 36 37 37 38 39 39 40
17 17 18 18 19 20 21 21 22 22 23 23 22 22 21 21 21 21 20 20 19 18 17 17 18 19 19 20 20 21 21 21 20 20 19 19 20 20 18 17 18 18 17 17 18 18 17 17 18 18 18 19 20 20 20 21 22 23 23 24 25 25 25 26 27 27 26 26 27 27 28 30 31 31 31 31 32 34 34 35 36 37 37 38 39 40 41
16 17 18 18 19 20 20 21 22 22 22 22 23 22 21 20 20 20 20 20 20 19 18 18 18 19 20 20 21 21 21 21 21 20 20 19 20 20 19 19 19 18 18 19 18 18 17 18 18 18 18 19 20 20 21 22 22 23 23 24 25 25 26 27 28 29 29 29 29 29 30 31 32 31 31 32 33 34 35 36 37 37 38 39 40 40 41
16 17 17 18 18 19 20 21 22 22 23 23 23 22 21 20 19 19 19 18 18 18 18 19 19 19 19 19 20 20 21 21 21 21 20 20 19 19 20 19 19 19 19 19 19 19 19 19 19 19 19 20 20 21 21 22 22 23 24 25 26 27 27 28 29 30 31 30 29 30 31 33 33 32 32 33 34 35 36 36 37 38 38 39 40 41 41
16 16 17 17 18 18 19 20 21 22 23 23 22 22 21 20 19 18 18 17 17 17 17 18 18 18 18 18 19 19 20 20 20 21 21 21 20 20 19 20 20 19 19 19 20 20 20 20 20 20 20 20 21 21 21 22 23 23 24 26 27 27 28 28 29 30 30 31 31 32 34 34 32 32 33 34 35 36 36 37 37 38 39 39 40 41 41
16 16 16 17 18 18 19 20 21 22 22 22 22 22 21 21 20 19 18 17 17 17 17 16 17 17 17 18 19 19 19 20 20 21 21 21 21 20 19 19 20 20 20 20 20 20 20 21 21 21 21 21 22 22 22 23 24 24 25 26 27 28 28 29 30 31 32 32 33 35 35 34 32 32 34 35 36 37 37 37 38 38 39 40 40 40 40
16 16 16 17 17 18 19 20 21 22 23 23 23 23 22 21 20 19 17 17 16 16 16 15 15 16 17 17 18 18 19 19 20 20 21 20 20 20 20 19 19 20 20 21 21 21 21 22 22 22 22 22 23 23 23 24 24 25 26 27 27 28 29 30 31 33 33 33 34 35 35 34 34 35 36 37 37 38 38 38 39 39 39 40 40 40 40
16 15 16 16 17 18 19 20 21 22 22 23 23 24 23 23 22 20 18 17 16 15 14 14 14 15 16 17 18 18 18 19 19 20 20 20 20 21 20 20 20 20 20 20 21 21 22 22 22 22 22 23 24 24 25 25 26 26 27 27 27 28 29 29 31 32 33 34 35 35 35 35 36 37 37 37 38 38 38 38 39 39 40 40 40 40 40
16 15 15 16 16 17 18 19 20 20 21 21 22 23 23 23 23 22 19 18 17 16 15 14 15 15 15 16 17 17 18 18 19 19 20 20 20 20 21 21 20 20 20 20 21 21 22 22 21 22 23 24 24 25 26 26 27 27 27 26 27 28 29 29 30 32 33 35 37 36 36 37 38 37 37 38 38 39 39 39 39 39 40 40 40 39 39
16 16 15 16 16 17 18 19 19 20 20 20 20 21 22 22 22 21 19 17 16 15 15 14 14 15 15 15 16 17 17 18 18 19 19 20 20 20 20 20 20 20 20 21 21 21 21 22 22 23 24 25 25 25 26 26 27 28 28 27 28 29 30 30 31 32 34 36 37 37 37 38 38 38 38 38 39 39 39 39 39 39 40 40 39 39 39
16 17 17 17 17 18 19 20 20 20 21 21 21 21 20 20 20 20 19 17 16 15 15 14 14 14 14 15 16 16 17 17 17 18 18 19 20 20 20 20 20 21 21 21 21 21 21 22 23 23 24 25 25 25 26 27 28 30 29 28 29 30 30 32 32 33 35 37 38 38 38 37 37 38 38 39 39 39 39 39 39 40 40 40 39 39 39
16 17 17 17 18 19 20 21 22 22 22 22 22 21 21 20 20 20 18 17 16 15 14 14 14 13 14 14 15 16 17 16 17 18 18 18 19 19 20 20 20 21 21 21 21 22 22 22 23 23 24 26 26 26 27 28 29 30 30 30 30 31 31 32 34 34 36 37 38 39 38 37 37 38 39 39 39 40 40 39 40 40 40 39 39 39 39
15 16 16 17 18 18 19 20 21 22 23 23 23 24 23 22 20 19 18 17 17 15 14 14 13 13 14 14 15 17 17 16 17 18 18 18 19 19 20 21 21 21 22 21 21 22 22 23 23 24 25 26 26 27 28 28 29 30 31 31 32 32 32 33 35 35 36 37 38 38 39 38 39 39 39 40 40 40 40 40 40 40 40 40 39 39 39
14 15 16 16 17 18 18 19 20 21 22 23 23 24 25 24 22 20 18 17 17 16 16 15 13 14 15 14 15 17 18 17 17 18 18 18 20 19 20 20 21 21 22 22 21 22 23 24 24 24 25 26 27 27 28 29 30 31 32 32 33 33 34 35 35 36 37 38 38 39 39 39 39 40 40 40 40 40 40 41 41 41 40 39 39 39 39
14 15 15 16 16 17 18 19 20 20 22 22 22 23 24 24 24 23 21 18 17 16 16 16 14 14 15 15 15 17 18 17 17 18 18 19 20 20 20 20 21 21 22 22 21 22 23 24 24 24 25 26 27 28 29 30 31 32 32 33 33 34 35 35 36 37 37 38 38 39 39 39 40 40 40 40 40 41 41 41 41 40 40 39 39 39 39
13 14 15 16 16 17 17 19 19 20 21 22 22 22 23 23 23 23 22 21 19 17 15 15 15 14 15 15 15 17 18 18 18 18 18 19 20 20 20 20 20 21 22 22 22 22 23 24 24 25 26 26 27 28 29 30 31 32 33 33 34 34 35 36 37 37 38 38 39 39 39 39 40 40 40 40 41 41 41 41 41 40 40 39 39 39 39
14 14 15 16 17 17 17 19 19 19 20 21 21 22 23 22 22 22 22 22 21 19 17 16 15 15 15 15 16 18 19 18 18 19 19 19 20 20 21 21 21 21 23 23 22 23 23 24 25 26 26 26 27 28 30 31 31 32 33 34 34 35 36 36 37 38 39 39 39 39 40 40 40 40 40 40 41 41 41 41 41 40 40 40 39 39 39
14 15 16 16 17 17 17 18 19 19 20 21 22 22 23 23 22 22 22 21 20 19 19 17 16 16 16 16 17 18 19 19 19 19 19 20 20 20 21 21 21 22 23 23 23 23 24 25 26 26 27 28 28 30 31 31 32 33 33 34 35 36 36 37 37 38 39 40 40 40 40 41 41 41 40 41 41 41 41 41 41 41 40 40 40 39 39
15 15 16 17 18 17 17 18 19 19 20 21 22 22 22 23 23 22 23 22 20 19 19 19 17 17 17 17 18 19 19 19 19 20 20 20 20 21 21 22 22 22 23 23 23 24 25 26 27 27 28 29 29 30 31 31 32 33 33 34 35 36 36 37 37 38 38 39 39 40 40 41 41 41 40 41 42 42 42 41 41 41 41 40 39 39 38
15 15 16 17 18 18 17 18 19 19 20 21 22 22 22 24 23 23 23 23 22 20 20 20 19 19 19 18 19 19 20 20 20 20 20 20 20 21 21 22 22 23 23 23 24 24 25 26 27 28 28 29 29 30 31 32 32 33 33 34 35 36 37 37 38 38 38 39 39 39 40 40 41 41 41 41 42 42 42 42 41 41 41 40 39 39 38
15 16 16 17 17 18 18 19 20 20 20 21 22 22 23 23 24 24 24 23 23 22 22 22 21 21 20 20 19 20 20 21 20 20 20 21 21 21 22 22 22 22 22 23 24 25 25 26 27 28 28 29 30 31 32 32 32 33 33 34 35 36 37 38 38 38 38 38 39 39 40 40 41 41 41 41 41 42 42 42 42 41 41 40 39 38 38
14 15 16 16 18 19 19 19 20 20 20 21 22 23 23 23 24 24 24 24 24 24 24 23 22 22 22 21 21 20 21 21 21 20 21 22 22 22 22 22 22 22 22 24 25 25 26 26 27 28 29 30 31 32 32 32 33 33 33 34 35 36 37 38 38 38 38 38 38 39 39 40 41 41 41 41 41 42 42 42 42 42 41 40 39 38 37
14 15 16 17 18 19 19 20 20 21 20 21 22 23 24 24 25 24 25 25 24 25 25 25 24 24 23 23 22 22 21 21 21 21 21 22 22 22 23 23 22 22 23 24 25 25 25 26 27 28 30 31 31 32 32 32 32 33 34 34 35 36 37 38 38 38 39 39 39 39 39 40 41 42 41 41 41 42 42 42 42 42 41 41 40 39 38
15 16 16 17 18 20 19 19 20 21 21 21 22 23 24 25 25 24 24 25 25 25 26 26 26 26 25 24 23 22 22 22 22 22 22 22 23 23 23 23 23 24 24 25 25 25 25 26 28 29 31 32 32 33 32 32 32 33 34 35 35 36 37 38 38 38 39 39 38 39 39 40 41 42 42 41 41 42 42 42 42 42 41 41 40 39 38
15 16 17 17 18 20 20 19 21 21 21 21 22 22 22 24 24 24 24 25 25 26 27 27 27 27 26 25 24 23 23 23 23 23 23 23 23 23 23 23 24 24 24 24 25 26 27 28 29 30 31 32 32 32 32 32 32 32 33 34 35 36 37 38 38 38 39 38 38 39 39 40 41 42 42 41 41 41 42 42 42 42 42 41 41 40 39
14 16 16 17 18 20 20 20 21 21 21 21 22 22 22 23 24 24 25 26 26 26 27 27 27 27 27 26 25 24 24 23 23 23 23 23 23 23 24 24 24 24 24 24 25 26 27 28 29 30 31 32 32 32 32 32 32 32 33 34 35 36 37 38 38 38 39 39 39 39 39 40 41 42 42 42 42 42 42 42 42 42 42 41 41 40 40
15 16 17 17 18 19 20 20 20 21 21 21 22 22 23 24 25 26 26 27 26 27 27 28 28 28 27 27 26 25 25 24 24 23 23 23 23 24 25 24 24 23 24 25 26 26 27 29 30 31 31 32 32 32 32 32 31 32 33 34 35 36 37 38 38 39 39 39 39 39 39 40 41 42 42 42 42 41 42 42 42 42 42 41 41 41 40
15 16 17 17 18 19 19 20 21 22 22 22 23 23 24 25 26 26 27 27 27 27 28 28 28 28 28 28 27 26 26 25 24 24 24 24 24 25 25 25 25 25 25 25 26 27 28 29 31 31 31 31 31 31 31 31 31 32 33 34 35 36 37 38 38 39 39 39 39 39 40 40 41 41 42 42 42 42 42 42 42 42 42 42 41 41 41
15 16 16 17 18 18 19 21 22 23 22 23 23 24 25 26 26 27 27 27 28 28 28 28 28 28 28 28 28 27 26 25 25 25 25 25 25 25 25 25 26 27 26 26 26 27 29 30 31 31 31 31 31 31 31 31 31 32 33 34 35 36 37 38 38 39 39 39 39 39 40 40 41 41 42 42 42 42 42 42 42 42 42 42 41 41 41
15 16 16 17 18 19 20 21 22 23 23 23 24 24 25 26 27 27 27 27 28 29 29 29 28 28 28 28 28 28 27 26 26 26 26 26 25 25 25 26 26 27 27 27 27 28 30 30 31 31 31 31 31 31 31 31 31 32 33 34 35 36 37 38 38 39 39 39 39 39 40 40 41 41 42 42 42 42 42 42 42 42 42 42 41 41 41
15 16 16 17 18 19 20 21 22 23 24 24 24 24 25 26 27 27 27 27 28 29 29 29 28 28 29 29 28 28 28 27 27 26 26 26 26 25 26 27 27 27 27 28 28 29 30 30 30 30 31 31 30 30 31 31 31 32 33 34 35 36 37 38 38 39 39 39 39 39 40 40 41 41 42 42 42 42 42 42 42 42 42 42 41 41 41
15 16 17 18 19 20 20 21 22 23 24 24 24 24 25 26 27 27 27 27 28 29 29 28 28 28 28 28 28 28 28 28 28 28 28 27 27 26 27 27 28 28 28 29 30 30 30 30 30 30 30 30 30 30 30 30 31 32 33 34 34 35 36 37 38 39 39 39 39 39 40 40 41 41 42 42 42 42 42 42 42 42 41 41 41 41 41
Wind_Direction
329 330 331 331 331 332 332 333 334 336 337 334 332 330 329 330 326 325 332 331 327 333 331 325 328 328 322 321 321 322 322 321 321 321 322 322 321 322 322 321 322 322 322 323 324 324 323 321 324 323 320 321 320 319 321 319 317 318 317 314 314 313 312 310 308 309 309 307 308 308 306 310 311 310 310 309 306 304 298 295 298 299 300 301 300 298 297
331 331 332 332 333 334 334 335 336 338 339 338 335 333 330 330 328 330 336 336 331 332 329 325 327 324 321 324 325 323 323 323 322 322 323 323 323 324 323 323 324 324 324 325 324 324 324 323 324 324 321 321 320 319 321 320 319 319 316 314 316 314 311 313 314 314 314 313 312 311 309 311 311 309 311 310 308 308 304 301 304 302 300 302 300 297 299
334 335 335 336 337 337 337 338 339 340 341 340 339 337 333 332 331 332 339 344 343 335 326 325 326 322 323 327 325 323 323 324 324 323 324 325 324 324 324 324 324 324 326 327 325 325 325 323 323 325 322 320 321 321 321 321 320 319 315 314 316 315 313 315 315 312 311 310 309 309 309 311 311 311 313 314 312 311 307 304 306 304 301 303 299 296 300
340 340 341 341 341 342 341 342 342 342 342 342 341 339 335 334 333 330 334 342 347 340 331 330 327 322 323 325 323 324 324 323 325 325 326 328 328 326 325 324 325 327 329 328 325 325 326 324 325 326 323 319 320 322 322 321 321 320 318 319 320 319 318 318 315 309 306 305 307 309 311 313 312 313 316 316 313 312 310 309 307 303 303 305 300 298 303
347 347 347 346 346 345 344 344 343 342 342 341 340 340 338 334 331 329 328 331 336 337 335 334 329 323 324 325 324 326 325 325 327 329 328 329 329 328 328 329 329 327 328 327 324 323 325 326 327 325 323 320 320 322 322 322 324 323 322 322 323 322 321 319 319 315 310 309 311 313 316 317 315 315 316 316 315 315 315 312 307 306 308 306 303 304 305
354 353 352 350 348 347 345 344 343 341 340 340 339 338 336 333 329 328 328 327 327 331 333 335 336 334 332 330 330 331 332 332 331 329 329 330 331 330 329 332 332 327 326 326 325 325 327 328 327 325 324 324 324 324 323 323 327 329 326 325 325 324 321 319 319 319 316 317 318 318 319 319 318 317 316 316 317 318 317 311 307 308 308 305 306 308 307
359 357 354 352 350 348 347 345 344 343 341 341 342 341 337 338 336 334 336 336 333 334 334 337 343 344 341 339 338 337 338 337 333 329 331 332 333 334 332 331 332 329 328 328 328 328 328 327 326 326 326 326 326 327 325 324 329 332 329 326 326 325 322 320 321 322 321 320 320 320 320 319 318 318 317 316 317 318 316 311 308 309 307 306 309 310 308
1 359 356 355 354 352 351 350 348 347 346 346 349 348 344 344 343 342 348 349 345 344 342 342 346 345 344 343 341 339 340 340 336 335 338 335 333 337 335 330 330 331 332 333 330 327 327 326 325 326 328 328 328 329 327 325 329 333 330 327 328 328 325 324 326 325 321 320 322 322 321 319 317 317 317 316 317 317 317 314 313 312 310 310 312 311 309
4 2 1 359 359 357 356 356 355 355 354 353 356 355 353 353 350 350 356 353 348 348 347 348 351 348 346 346 342 342 343 341 338 339 341 339 335 335 334 330 331 334 336 337 331 327 328 327 326 327 330 332 331 330 329 327 328 331 332 330 331 332 329 328 330 327 320 321 323 321 319 319 317 316 317 318 317 317 317 316 314 313 312 313 314 313 311
7 6 5 4 4 3 3 3 3 2 2 1 2 0 358 359 357 356 360 356 352 352 350 352 355 350 347 347 345 345 344 341 342 343 342 342 340 336 333 332 334 336 337 336 331 329 331 331 331 332 334 336 338 337 336 335 333 331 333 333 333 334 332 332 332 328 322 322 322 319 319 320 316 316 319 318 317 319 319 317 315 314 314 314 314 314 314
12 12 11 10 10 10 9 9 9 9 9 8 8 6 3 3 1 359 3 2 356 355 356 357 357 353 351 350 349 349 350 349 349 348 343 341 341 339 336 336 336 336 335 334 333 334 336 337 339 342 343 344 345 343 343 345 342 337 335 335 335 337 337 334 333 330 324 323 325 325 325 322 317 319 322 318 318 322 322 318 317 317 318 317 316 316 317
18 17 17 16 16 16 16 17 16 16 17 16 15 14 10 10 9 6 10 9 360 360 5 2 359 358 356 355 354 352 353 351 348 346 343 340 341 342 340 339 339 337 335 336 338 340 342 343 344 346 347 346 346 348 351 350 347 345 344 341 339 341 340 335 334 333 327 328 333 332 326 320 318 323 326 323 321 323 321 317 318 321 322 321 320 319 318
23 23 24 24 25 24 24 25 25 24 25 23 22 23 19 17 18 16 18 19 8 4 9 7 4 5 2 0 358 353 351 350 347 346 346 344 343 344 343 341 340 338 337 340 344 345 344 345 345 343 343 343 345 349 353 352 349 351 352 349 346 344 343 339 339 337 333 335 336 330 323 323 324 326 328 327 325 324 322 320 321 322 322 322 321 319 318
31 31 32 32 32 32 30 30 30 29 29 29 27 27 24 22 22 21 21 23 15 8 11 11 7 6 3 -0 358 355 354 354 352 350 349 347 346 346 344 343 343 342 343 345 347 348 348 349 350 347 346 349 351 350 352 354 354 356 356 354 352 350 346 344 343 340 338 336 331 328 328 329 328 327 328 327 324 323 323 322 321 321 322 323 321 319 318
39 38 38 37 36 35 33 32 31 30 31 31 29 28 27 25 24 24 25 29 25 16 15 14 7 3 360 359 1 360 358 357 355 353 351 350 349 348 348 348 349 350 352 353 354 355 355 355 357 357 356 358 357 355 355 357 357 358 360 359 357 354 351 348 346 343 342 339 334 333 333 330 327 327 327 327 324 322 322 321 321 323 324 323 322 320 320
43 41 40 39 37 35 33 31 31 30 29 29 28 28 27 25 25 27 27 29 27 19 14 12 9 4 2 2 5 5 2 359 358 357 356 356 356 355 355 358 359 360 2 3 4 6 7 6 8 9 6 4 4 1 2 2 359 358 1 3 1 357 353 352 350 346 344 342 337 333 330 327 327 328 327 327 325 323 324 323 323 323 324 323 323 322 322
44 42 40 39 37 35 33 31 31 29 28 28 28 27 26 25 26 29 29 30 30 23 15 14 12 9 8 7 7 8 6 4 5 5 3 2 2 3 4 6 7 9 12 12 12 15 17 16 17 17 12 9 10 7 4 6 3 359 359 0 360 356 352 351 351 348 344 342 337 332 330 329 329 328 327 327 326 326 328 326 323 323 324 325 325 324 323
44 42 40 38 36 34 33 31 31 30 29 29 29 28 27 25 26 28 29 31 31 24 18 19 17 14 14 13 10 10 10 9 10 10 9 10 12 10 11 14 16 16 18 20 20 21 22 21 19 20 14 9 11 10 6 6 4 359 358 358 357 356 352 352 352 348 344 342 337 333 332 331 331 329 328 328 328 330 329 324 322 324 326 326 326 325 324
43 41 40 37 35 33 32 31 30 29 28 28 28 28 28 26 27 30 31 32 32 26 22 23 22 19 18 17 15 15 16 15 15 16 18 19 18 17 18 21 22 21 21 25 25 24 24 20 17 19 15 8 9 10 7 5 2 359 359 358 357 355 353 351 351 348 345 342 338 335 334 334 332 330 330 331 331 329 326 324 324 326 326 325 325 325 324
42 40 39 36 34 33 31 31 30 29 28 28 28 28 28 26 27 29 30 34 38 34 28 26 25 24 23 23 22 21 21 21 22 24 27 24 21 24 26 24 22 22 23 25 24 22 22 18 13 14 13 8 7 8 5 2 0 359 358 357 355 354 353 350 348 347 345 344 341 339 335 334 334 333 332 333 332 327 326 326 326 326 325 325 325 325 324
41 39 37 35 34 33 31 30 29 29 29 29 27 28 30 29 30 32 33 36 40 36 30 28 29 29 28 28 28 27 26 27 28 29 30 27 25 30 32 26 23 24 24 24 22 19 18 16 12 11 10 7 6 5 3 0 358 356 357 357 354 353 353 350 347 347 347 344 341 338 335 334 335 335 333 332 330 328 328 327 326 326 326 326 325 325 325
39 38 36 35 34 33 31 30 29 29 29 28 27 29 32 32 33 35 35 37 40 38 34 34 34 33 32 31 31 31 31 32 32 32 32 30 30 32 33 29 27 26 23 22 21 16 15 14 11 10 7 5 4 3 2 0 357 354 355 356 354 352 351 349 347 346 345 340 336 337 337 336 336 335 332 332 331 330 330 328 327 327 327 327 326 326 326
38 37 35 34 33 33 31 30 29 28 28 27 26 29 33 33 33 34 35 38 41 40 36 35 34 33 32 32 32 33 33 34 34 33 33 32 30 30 30 28 26 23 21 20 18 16 15 13 10 9 6 3 4 3 0 358 355 353 354 354 352 351 352 351 348 346 343 339 337 338 338 337 336 335 334 333 333 332 332 331 329 329 328 328 328 327 327
37 36 34 34 33 32 31 30 30 30 30 29 29 30 32 31 30 30 31 33 36 35 32 31 32 31 31 32 33 34 34 35 34 34 33 31 30 29 27 25 24 22 20 19 17 16 15 12 10 9 5 2 2 2 359 356 353 354 354 352 350 351 351 350 348 347 345 343 342 341 338 336 336 336 335 335 335 334 333 332 331 330 330 329 329 329 329
36 35 35 34 32 32 31 31 31 30 29 29 29 28 29 27 25 26 28 30 33 34 32 28 29 32 32 32 33 34 34 34 34 33 31 30 29 28 26 24 24 22 20 18 17 16 15 12 10 9 6 2 0 359 358 355 354 354 353 351 350 351 350 348 348 347 345 342 341 340 338 337 337 338 337 337 336 335 334 334 332 332 331 331 331 331 330
36 35 35 35 34 33 33 32 31 30 28 27 26 26 27 26 25 27 31 33 34 35 33 29 28 31 33 33 33 33 33 32 31 31 29 28 27 27 25 23 22 21 19 18 17 15 15 13 10 8 6 4 1 359 357 355 355 355 352 349 350 351 349 348 348 347 345 343 342 342 341 340 340 339 338 338 337 336 335 335 334 333 332 332 332 332 332
37 37 36 36 36 35 35 34 32 31 30 29 28 27 26 24 23 24 26 26 26 28 29 29 28 30 33 33 32 31 30 30 29 27 26 26 25 24 23 21 20 18 17 16 14 13 13 11 9 7 5 3 3 1 358 356 356 355 351 349 350 350 349 348 349 348 346 344 344 344 343 341 340 339 339 339 338 337 337 336 335 334 334 334 333 333 334
37 37 37 36 36 36 34 32 30 29 29 28 28 28 27 25 24 24 24 24 26 31 34 33 31 31 31 30 28 27 27 26 26 25 24 24 23 22 20 19 17 15 13 13 12 11 11 9 6 5 4 3 2 1 358 357 357 354 350 349 349 349 348 348 348 346 344 343 343 343 342 339 339 340 340 340 339 339 338 337 336 336 336 335 335 335 335
38 37 37 35 34 32 27 24 22 21 21 21 22 23 24 24 23 25 27 28 31 37 39 35 29 27 26 25 24 24 23 22 22 22 22 21 20 19 18 17 15 13 12 12 11 10 9 7 5 3 2 1 0 359 358 357 356 352 350 349 348 347 346 346 346 344 343 343 343 343 342 340 340 341 341 340 340 340 339 338 338 337 337 337 336 336 336
38 37 35 32 30 26 21 19 16 15 15 16 16 16 18 19 20 22 24 25 27 29 32 31 26 22 22 21 19 17 17 17 18 17 17 17 16 15 14 13 12 11 10 9 9 8 6 4 2 1 359 359 359 358 358 357 354 351 349 349 348 347 346 345 344 344 343 344 344 344 342 340 341 342 342 342 341 341 339 339 339 339 338 338 337 337 337
39 38 36 33 30 27 24 22 20 18 18 18 16 15 14 15 16 16 18 21 22 24 27 28 24 19 17 18 16 13 12 12 12 11 11 11 11 10 9 9 8 7 6 6 5 5 3 1 360 358 357 358 359 358 357 357 353 350 349 349 347 346 346 345 344 343 343 344 346 344 342 342 342 343 343 342 342 341 341 340 340 340 339 339 339 338 338
39 38 37 36 33 31 30 28 26 24 24 23 22 20 17 15 14 14 16 19 19 20 21 22 19 14 11 11 11 10 9 8 8 7 6 6 6 5 5 5 5 4 4 4 2 1 360 358 358 357 356 356 357 357 357 355 352 349 350 349 348 347 346 345 344 344 344 346 346 345 344 344 343 343 342 342 342 342 341 341 340 340 340 340 340 339 338
37 36 35 34 32 30 29 28 26 26 26 26 26 23 19 17 14 13 15 17 17 16 16 16 14 10 7 6 6 6 5 4 3 3 3 2 2 1 -0 0 1 0 360 359 358 357 357 356 356 355 354 354 356 356 355 351 348 348 349 349 348 348 347 345 344 344 345 346 346 346 344 344 343 343 343 343 343 343 342 342 341 341 341 341 341 340 339
34 33 31 29 27 26 25 23 23 23 22 22 22 21 20 19 18 15 13 14 14 14 13 12 10 6 2 2 2 2 2 0 359 358 358 357 358 358 356 355 356 357 356 356 356 355 354 354 354 353 351 352 354 354 351 348 346 347 348 348 348 348 347 345 345 344 345 346 346 345 345 344 344 344 344 344 344 343 343 342 342 342 342 342 341 340 340
31 30 28 25 23 22 21 19 19 18 17 17 17 17 17 18 19 18 16 13 11 9 7 7 7 4 360 359 356 355 357 357 355 354 353 352 353 355 354 352 352 353 353 352 352 352 352 352 351 350 350 351 351 350 348 347 346 347 347 346 347 347 347 345 345 345 345 346 346 346 346 346 345 345 345 344 344 344 343 343 343 343 342 342 341 341 341
28 26 24 21 19 18 17 15 15 14 14 14 14 13 12 13 14 16 17 16 14 11 6 4 3 1 357 354 350 350 352 353 350 349 349 349 349 351 352 351 350 350 350 350 350 350 350 350 349 348 349 349 348 346 346 347 346 346 345 345 346 347 346 345 345 346 346 346 346 346 347 346 345 345 345 345 344 344 344 344 343 343 342 342 342 341 341
25 23 20 18 16 15 14 12 12 12 12 11 10 10 9 8 8 9 10 12 12 11 8 5 360 355 353 350 347 347 348 347 346 347 347 346 345 346 349 349 347 346 347 349 348 347 347 348 348 347 346 346 345 344 345 346 345 345 345 345 346 346 345 345 346 346 346 346 346 346 347 347 346 346 346 345 345 345 345 344 344 343 343 342 342 342 342
24 21 19 17 15 13 12 11 10 11 10 9 9 9 8 8 8 7 5 5 5 5 5 4 358 353 352 348 345 345 346 345 345 346 345 344 343 344 346 347 346 345 345 345 344 345 346 347 348 346 343 342 343 343 343 344 344 344 345 346 345 345 345 345 346 346 346 345 346 347 347 347 346 346 346 346 346 346 345 345 345 344 344 343 343 342 342
22 19 17 16 15 12 11 10 9 9 8 8 9 8 7 7 8 6 4 3 2 360 360 359 356 352 351 348 344 344 345 344 344 343 342 342 341 341 343 344 344 344 344 343 344 345 345 344 346 346 343 342 343 343 343 344 344 344 345 345 345 345 345 345 345 346 345 345 346 347 347 347 347 347 347 347 346 346 346 346 346 345 345 344 343 343 343
19 17 15 15 14 12 11 9 8 8 8 7 8 8 7 7 8 6 4 4 2 359 356 355 352 349 349 347 343 342 343 343 342 340 339 339 338 339 340 341 341 342 342 341 342 344 344 342 343 345 343 342 342 343 344 344 344 344 344 344 344 344 345 345 345 345 346 346 346 347 348 348 348 348 348 347 347 347 347 347 347 346 346 345 344 344 344
15 14 13 13 13 12 11 9 8 7 7 7 7 7 7 6 5 4 5 4 1 357 355 354 351 347 346 345 342 339 340 341 340 339 338 337 337 338 338 338 338 340 339 338 340 343 344 342 342 342 341 340 342 343 343 343 343 343 343 343 344 344 344 345 345 346 346 346 346 347 348 349 349 349 348 348 348 348 348 348 348 347 346 346 345 345 344
14 14 14 14 12 10 9 8 7 6 6 6 6 5 4 4 3 3 3 2 360 357 355 354 350 346 343 342 340 338 338 339 339 339 338 336 336 337 337 336 337 338 336 336 339 342 342 340 339 339 339 339 341 342 342 342 342 343 343 343 343 343 344 344 345 345 345 345 346 346 347 348 349 349 349 349 348 348 348 348 348 348 347 347 346 346 345
14 13 12 10 9 7 6 6 6 6 6 5 4 3 2 2 2 1 360 358 358 357 356 353 350 347 344 342 340 338 337 337 337 337 336 335 335 337 337 336 336 335 335 336 339 340 338 337 337 337 338 339 340 340 340 341 341 342 343 343 343 343 343 344 345 345 345 346 346 346 347 348 349 349 349 349 349 349 349 349 349 349 348 348 347 347 346
9 7 7 5 5 5 4 3 4 5 5 3 2 2 0 359 359 359 358 356 356 356 355 353 352 349 345 342 341 339 337 337 337 336 335 335 335 336 336 333 332 333 334 336 337 336 335 335 335 335 337 338 338 338 339 340 341 342 342 343 343 343 343 344 345 345 345 346 346 346 347 348 348 349 350 349 349 349 348 349 349 349 349 349 348 348 347
3 3 4 3 2 2 3 2 2 3 2 0 0 1 359 357 356 356 355 354 355 355 353 353 353 351 347 344 343 340 338 337 336 335 334 335 335 334 333 332 332 334 334 334 334 334 334 334 335 335 336 336 337 338 339 339 340 341 343 343 343 343 343 344 344 345 345 345 345 346 346 347 348 349 349 349 349 349 349 349 350 350 350 349 349 348 348
0 0 2 2 360 0 1 1 359 359 359 357 357 357 356 354 354 354 353 353 353 353 351 352 353 352 349 347 345 342 340 339 337 335 335 336 334 332 332 332 333 334 334 333 332 332 332 333 334 335 335 335 336 337 338 339 340 341 342 343 343 342 343 343 344 344 344 345 345 345 345 346 347 348 349 349 349 349 349 349 350 350 350 350 349 349 349
356 357 359 359 357 357 359 358 356 355 355 354 353 353 353 352 351 351 352 351 351 351 351 351 351 350 349 349 347 344 342 341 339 336 336 335 333 332 334 334 333 332 332 330 329 330 331 332 334 334 334 335 336 337 338 338 339 340 341 342 342 343 343 343 343 344 344 345 345 345 345 345 346 348 348 349 349 349 349 350 350 350 350 350 350 350 349
352 353 355 355 354 354 354 354 352 351 351 351 350 350 350 350 350 349 349 350 350 350 350 350 350 349 349 350 349 346 345 344 341 338 337 337 335 334 334 334 331 330 330 329 328 330 331 332 333 333 334 335 336 337 337 338 339 339 340 341 342 342 343 343 343 344 344 345 345 345 345 345 346 347 348 348 348 349 349 350 350 350 350 350 349 350 350
350 351 352 353 352 351 350 351 351 349 347 347 348 348 348 348 347 347 348 349 349 349 349 349 349 349 349 349 349 348 347 345 343 342 341 339 337 334 333 332 330 329 329 328 328 329 331 331 332 333 334 334 335 336 337 337 338 339 340 341 341 342 343 343 343 344 344 345 344 344 345 345 346 347 347 348 348 348 349 350 350 350 350 349 349 349 350
346 347 347 349 349 347 347 349 350 347 346 345 345 346 347 347 346 346 347 348 348 349 349 349 348 349 348 349 349 349 347 345 345 344 342 339 338 336 334 331 329 329 328 328 328 329 330 331 333 333 333 333 335 335 336 336 337 338 339 340 341 342 343 343 343 344 345 345 344 344 345 345 346 346 347 347 348 348 349 349 349 349 349 349 349 349 349
342 343 343 344 344 344 345 347 346 344 343 344 344 344 345 346 346 346 347 347 348 349 348 347 347 348 349 348 347 347 346 346 346 344 341 339 339 338 335 332 329 329 328 328 329 329 330 331 332 333 333 333 334 334 334 335 336 337 339 340 341 342 342 343 344 344 344 345 345 345 345 345 345 346 347 347 348 348 348 348 348 349 349 349 349 349 349
337 338 339 340 340 341 342 343 342 342 342 342 342 343 344 345 345 346 347 347 348 347 346 346 347 348 346 345 345 346 345 345 344 343 340 339 339 337 334 331 330 330 329 329 329 329 330 331 331 332 332 333 333 333 333 334 335 337 338 339 340 341 342 343 343 344 344 345 345 344 344 345 346 346 347 347 347 347 347 348 348 349 349 349 349 349 349